| time (UTC) | temp C | wind direction | speed KPH | gust KPH | rain 1hr cm | rain 24hr cm | rain mn cm | humidity % | barometer mb |
| 20260505184056 | 16 | 151 | 0.0 | 3.2 | 0.00 | 0.00 | 0.00 | 80 | 1015.9 |
| 20260505183056 | 15 | 86 | 0.0 | 3.2 | 0.00 | 0.00 | 0.00 | 81 | 1015.8 |
| 20260505182055 | 15 | 51 | 1.6 | 6.4 | 0.00 | 0.00 | 0.00 | 81 | 1015.8 |
| 20260505181056 | 15 | 92 | 0.0 | 3.2 | 0.00 | 0.00 | 0.00 | 82 | 1015.8 |
| 20260505180550 | 15 | 68 | 0.0 | 3.2 | 0.00 | 0.00 | 0.00 | 81 | 1015.8 |
| 20260505175056 | 15 | 67 | 0.0 | 3.2 | 0.00 | 0.00 | 0.00 | 80 | 1015.7 |
| 20260505174054 | 15 | 96 | 0.0 | 3.2 | 0.00 | 0.00 | 0.00 | 81 | 1015.7 |
| 20260505173054 | 15 | 94 | 0.0 | 4.8 | 0.00 | 0.00 | 0.00 | 82 | 1015.7 |
| 20260505172054 | 15 | 57 | 0.0 | 3.2 | 0.00 | 0.00 | 0.00 | 81 | 1015.6 |
| 20260505171058 | 15 | 5 | 0.0 | 4.8 | 0.00 | 0.00 | 0.00 | 82 | 1015.6 |
| 20260505170054 | 14 | 23 | 0.0 | 4.8 | 0.00 | 0.00 | 0.00 | 84 | 1015.5 |
| 20260505165054 | 14 | 86 | 0.0 | 4.8 | 0.00 | 0.00 | 0.00 | 82 | 1015.5 |
| 20260505164054 | 14 | 115 | 1.6 | 4.8 | 0.00 | 0.00 | 0.00 | 82 | 1015.6 |
| 20260505163057 | 13 | 9 | 0.0 | 3.2 | 0.00 | 0.00 | 0.00 | 84 | 1015.7 |
| 20260505162053 | 13 | 327 | 0.0 | 3.2 | 0.00 | 0.00 | 0.00 | 82 | 1015.6 |
| 20260505161051 | 13 | 22 | 0.0 | 3.2 | 0.00 | 0.00 | 0.00 | 84 | 1015.6 |
| 20260505160528 | 13 | 28 | 0.0 | 3.2 | 0.00 | 0.00 | 0.00 | 84 | 1015.7 |
| 20260505153052 | 13 | 339 | 0.0 | 3.2 | 0.00 | 0.00 | 0.00 | 86 | 1015.7 |
| 20260505152049 | 12 | 339 | 0.0 | 3.2 | 0.00 | 0.00 | 0.00 | 87 | 1015.7 |
| 20260505151050 | 12 | 288 | 0.0 | 1.6 | 0.00 | 0.00 | 0.00 | 88 | 1015.6 |
| 20260505124044 | 11 | 288 | 0.0 | 0.0 | 0.00 | 0.00 | 0.00 | 89 | 1014.6 |
| 20260505123045 | 11 | 288 | 0.0 | 0.0 | 0.00 | 0.00 | 0.00 | 90 | 1014.5 |
| 20260505122042 | 12 | 288 | 0.0 | 0.0 | 0.00 | 0.00 | 0.00 | 88 | 1014.5 |
| 20260505121041 | 12 | 288 | 0.0 | 3.2 | 0.00 | 0.00 | 0.00 | 89 | 1014.5 |
| 20260505120043 | 12 | 288 | 0.0 | 3.2 | 0.00 | 0.00 | 0.00 | 88 | 1014.4 |
| 20260505115519 | 12 | 303 | 0.0 | 3.2 | 0.00 | 0.00 | 0.00 | 88 | 1014.5 |
| 20260505114521 | 12 | 290 | 0.0 | 3.2 | 0.00 | 0.00 | 0.00 | 88 | 1014.6 |
| 20260505113534 | 12 | 280 | 0.0 | 3.2 | 0.00 | 0.00 | 0.00 | 88 | 1014.5 |
| 20260505112518 | 12 | 308 | 0.0 | 4.8 | 0.00 | 0.00 | 0.00 | 87 | 1014.5 |
| 20260505111042 | 12 | 273 | 1.6 | 12.9 | 0.00 | 0.00 | 0.00 | 87 | 1014.7 |
| 20260505102042 | 12 | 283 | 4.8 | 11.3 | 0.00 | 0.00 | 0.00 | 88 | 1014.3 |
| 20260505101041 | 12 | 308 | 3.2 | 9.7 | 0.00 | 0.00 | 0.00 | 88 | 1014.2 |
| 20260505101006 | 12 | 277 | 6.4 | 12.9 | 0.00 | 0.00 | 0.00 | 88 | 1014.2 |
| 20260505095041 | 12 | 262 | 1.6 | 6.4 | 0.00 | 0.00 | 0.00 | 89 | 1014.2 |
| 20260505094042 | 12 | 306 | 1.6 | 4.8 | 0.00 | 0.00 | 0.00 | 89 | 1014.2 |
| 20260505093041 | 12 | 309 | 0.0 | 8.0 | 0.00 | 0.00 | 0.00 | 89 | 1014.2 |
| 20260505092041 | 12 | 285 | 1.6 | 3.2 | 0.00 | 0.00 | 0.00 | 90 | 1014.1 |
| 20260505091041 | 12 | 308 | 0.0 | 4.8 | 0.00 | 0.00 | 0.00 | 90 | 1014.0 |
| 20260505090042 | 12 | 298 | 0.0 | 4.8 | 0.00 | 0.00 | 0.00 | 90 | 1014.1 |
| 20260505085041 | 12 | 287 | 1.6 | 3.2 | 0.00 | 0.00 | 0.00 | 91 | 1014.1 |
| 20260505084041 | 11 | 270 | 0.0 | 4.8 | 0.00 | 0.00 | 0.00 | 91 | 1014.1 |
| 20260505083516 | 11 | 300 | 1.6 | 4.8 | 0.00 | 0.00 | 0.00 | 92 | 1014.1 |
| 20260505082039 | 11 | 275 | 1.6 | 6.4 | 0.00 | 0.00 | 0.00 | 94 | 1014.1 |
| 20260505081039 | 11 | 285 | 0.0 | 6.4 | 0.00 | 0.00 | 0.00 | 95 | 1014.1 |
| 20260505080439 | 10 | 261 | 0.0 | 3.2 | 0.00 | 0.00 | 0.00 | 97 | 1014.1 |
| 20260505080113 | 10 | 291 | 0.0 | 4.8 | 0.00 | 0.00 | 0.00 | 96 | 1014.1 |
| 20260505074039 | 10 | 247 | 0.0 | 3.2 | 0.00 | 0.00 | 0.00 | 97 | 1014.1 |
| 20260505073040 | 10 | 300 | 0.0 | 0.0 | 0.00 | 0.00 | 0.00 | 96 | 1014.1 |
| 20260505072039 | 9 | 300 | 0.0 | 0.0 | 0.00 | 0.00 | 0.00 | 96 | 1014.0 |
| 20260505071042 | 9 | 300 | 0.0 | 0.0 | 0.00 | 0.00 | 0.00 | 96 | 1014.1 |
| 20260505070040 | 8 | 300 | 0.0 | 0.0 | 0.00 | 0.00 | 0.00 | 96 | 1014.0 |
| 20260505065039 | 8 | 300 | 0.0 | 0.0 | 0.00 | 0.00 | 0.00 | 95 | 1014.0 |
| 20260505064039 | 8 | 300 | 0.0 | 0.0 | 0.00 | 0.00 | 0.00 | 95 | 1014.0 |
| 20260505063038 | 8 | 300 | 0.0 | 0.0 | 0.00 | 0.00 | 0.00 | 95 | 1014.0 |
| 20260505062037 | 8 | 300 | 0.0 | 0.0 | 0.00 | 0.00 | 0.00 | 94 | 1014.0 |
| 20260505061037 | 8 | 300 | 0.0 | 0.0 | 0.00 | 0.00 | 0.00 | 94 | 1014.0 |
| 20260505060037 | 8 | 300 | 0.0 | 0.0 | 0.00 | 0.00 | 0.00 | 93 | 1013.9 |
| 20260505055038 | 8 | 300 | 0.0 | 0.0 | 0.00 | 0.00 | 0.00 | 93 | 1013.8 |
| 20260505054036 | 9 | 300 | 0.0 | 0.0 | 0.00 | 0.00 | 0.00 | 93 | 1013.8 |
| 20260505053958 | 9 | 300 | 0.0 | 0.0 | 0.00 | 0.00 | 0.00 | 93 | 1013.8 |
| 20260505052037 | 10 | 300 | 0.0 | 0.0 | 0.00 | 0.00 | 0.00 | 92 | 1013.6 |
| 20260505051038 | 10 | 300 | 0.0 | 0.0 | 0.00 | 0.00 | 0.00 | 92 | 1013.6 |
| 20260505041037 | 12 | 300 | 0.0 | 3.2 | 0.00 | 0.00 | 0.00 | 87 | 1012.8 |
| 20260505040037 | 12 | 300 | 0.0 | 3.2 | 0.00 | 0.00 | 0.00 | 86 | 1012.7 |
| 20260505035039 | 13 | 300 | 0.0 | 3.2 | 0.00 | 0.00 | 0.00 | 86 | 1012.5 |
| 20260505034039 | 13 | 277 | 0.0 | 3.2 | 0.00 | 0.00 | 0.00 | 85 | 1012.4 |
| 20260505033041 | 13 | 265 | 0.0 | 3.2 | 0.00 | 0.00 | 0.00 | 84 | 1012.3 |
| 20260505032038 | 13 | 10 | 0.0 | 3.2 | 0.00 | 0.00 | 0.00 | 83 | 1012.1 |
| 20260505031036 | 14 | 240 | 0.0 | 3.2 | 0.00 | 0.00 | 0.00 | 82 | 1011.8 |
| 20260505030037 | 15 | 227 | 0.0 | 3.2 | 0.00 | 0.00 | 0.00 | 81 | 1011.6 |
| 20260505025036 | 15 | 245 | 0.0 | 1.6 | 0.00 | 0.00 | 0.00 | 79 | 1011.4 |
| 20260505024037 | 16 | 332 | 0.0 | 3.2 | 0.00 | 0.00 | 0.00 | 78 | 1011.3 |
| 20260505023037 | 16 | 281 | 3.2 | 4.8 | 0.00 | 0.00 | 0.00 | 76 | 1011.2 |
| 20260505022526 | 17 | 167 | 0.0 | 6.4 | 0.00 | 0.00 | 0.00 | 76 | 1011.1 |
| 20260505021052 | 17 | 110 | 1.6 | 11.3 | 0.00 | 0.00 | 0.00 | 73 | 1010.9 |
| 20260505020043 | 17 | 254 | 1.6 | 4.8 | 0.00 | 0.00 | 0.00 | 73 | 1010.9 |
| 20260505015048 | 18 | 258 | 3.2 | 16.1 | 0.00 | 0.00 | 0.00 | 73 | 1010.9 |
| 20260505014046 | 18 | 273 | 0.0 | 3.2 | 0.00 | 0.00 | 0.00 | 73 | 1010.9 |
| 20260505013049 | 18 | 244 | 0.0 | 3.2 | 0.00 | 0.00 | 0.00 | 72 | 1011.0 |
| 20260505012523 | 18 | 243 | 0.0 | 11.3 | 0.00 | 0.00 | 0.00 | 72 | 1011.1 |
| 20260505011044 | 19 | 111 | 0.0 | 11.3 | 0.00 | 0.00 | 0.00 | 71 | 1011.0 |
| 20260505010049 | 19 | 223 | 0.0 | 11.3 | 0.00 | 0.00 | 0.00 | 72 | 1011.1 |
| 20260505005045 | 20 | 166 | 3.2 | 8.0 | 0.00 | 0.00 | 0.00 | 69 | 1011.1 |
| 20260505004049 | 20 | 142 | 1.6 | 9.7 | 0.00 | 0.00 | 0.00 | 70 | 1011.1 |
| 20260505003045 | 20 | 200 | 1.6 | 6.4 | 0.00 | 0.00 | 0.00 | 69 | 1011.1 |
| 20260505002053 | 20 | 166 | 1.6 | 9.7 | 0.00 | 0.00 | 0.00 | 70 | 1011.0 |
| 20260505001042 | 20 | 292 | 0.0 | 6.4 | 0.00 | 0.00 | 0.00 | 71 | 1011.0 |
| 20260505000039 | 20 | 274 | 3.2 | 8.0 | 0.00 | 0.00 | 0.00 | 69 | 1011.0 |
| 20260504235039 | 20 | 257 | 0.0 | 14.5 | 0.00 | 0.00 | 0.00 | 70 | 1011.0 |
| 20260504234041 | 20 | 313 | 3.2 | 16.1 | 0.00 | 0.00 | 0.00 | 72 | 1011.0 |
| 20260504233037 | 20 | 269 | 1.6 | 12.9 | 0.00 | 0.00 | 0.00 | 72 | 1011.1 |
| 20260504232038 | 21 | 300 | 1.6 | 9.7 | 0.00 | 0.00 | 0.00 | 71 | 1011.1 |
| 20260504231037 | 21 | 285 | 3.2 | 16.1 | 0.00 | 0.00 | 0.00 | 66 | 1011.2 |
| 20260504230037 | 21 | 240 | 3.2 | 20.9 | 0.00 | 0.00 | 0.00 | 69 | 1011.4 |
| 20260504225037 | 21 | 254 | 3.2 | 16.1 | 0.00 | 0.00 | 0.00 | 70 | 1011.5 |
| 20260504224035 | 21 | 265 | 6.4 | 16.1 | 0.00 | 0.00 | 0.00 | 68 | 1011.6 |
| 20260504223035 | 21 | 286 | 1.6 | 8.0 | 0.00 | 0.00 | 0.00 | 70 | 1011.7 |
| 20260504222035 | 21 | 249 | 3.2 | 12.9 | 0.00 | 0.00 | 0.00 | 70 | 1011.8 |
| 20260504221036 | 20 | 198 | 1.6 | 16.1 | 0.00 | 0.00 | 0.00 | 76 | 1011.9 |
| 20260504220040 | 20 | 260 | 3.2 | 14.5 | 0.00 | 0.00 | 0.00 | 72 | 1012.3 |
| 20260504215514 | 20 | 286 | 4.8 | 14.5 | 0.00 | 0.00 | 0.00 | 70 | 1012.3 |
| 20260504214519 | 20 | 93 | 3.2 | 12.9 | 0.00 | 0.00 | 0.00 | 72 | 1012.3 |
| 20260504213035 | 20 | 252 | 3.2 | 17.7 | 0.00 | 0.00 | 0.00 | 75 | 1012.4 |
| 20260504212523 | 20 | 182 | 3.2 | 12.9 | 0.00 | 0.00 | 0.00 | 71 | 1012.4 |
| 20260504211034 | 20 | 252 | 3.2 | 16.1 | 0.00 | 0.00 | 0.00 | 71 | 1012.6 |
| 20260504210035 | 19 | 161 | 1.6 | 12.9 | 0.00 | 0.00 | 0.00 | 70 | 1012.6 |
| 20260504205035 | 20 | 299 | 3.2 | 14.5 | 0.00 | 0.00 | 0.00 | 76 | 1012.6 |
| 20260504204037 | 20 | 271 | 3.2 | 11.3 | 0.00 | 0.00 | 0.00 | 80 | 1012.7 |
| 20260504203035 | 19 | 90 | 3.2 | 9.7 | 0.00 | 0.00 | 0.00 | 71 | 1012.8 |
| 20260504202034 | 18 | 128 | 1.6 | 6.4 | 0.00 | 0.00 | 0.00 | 72 | 1012.9 |
| 20260504201035 | 18 | 243 | 1.6 | 11.3 | 0.00 | 0.00 | 0.00 | 76 | 1013.0 |
| 20260504200036 | 18 | 223 | 1.6 | 11.3 | 0.00 | 0.00 | 0.00 | 79 | 1013.0 |
| 20260504195034 | 18 | 288 | 0.0 | 9.7 | 0.00 | 0.00 | 0.00 | 75 | 1013.0 |
| 20260504194034 | 18 | 317 | 0.0 | 6.4 | 0.00 | 0.00 | 0.00 | 74 | 1013.1 |
| 20260504193035 | 17 | 260 | 3.2 | 11.3 | 0.00 | 0.00 | 0.00 | 76 | 1013.2 |
| 20260504192035 | 18 | 286 | 0.0 | 12.9 | 0.00 | 0.00 | 0.00 | 77 | 1013.3 |
| 20260504191034 | 17 | 249 | 1.6 | 9.7 | 0.00 | 0.00 | 0.00 | 81 | 1013.3 |
| 20260504190035 | 17 | 97 | 1.6 | 8.0 | 0.00 | 0.00 | 0.00 | 76 | 1013.4 |
| 20260504185034 | 17 | 31 | 0.0 | 8.0 | 0.00 | 0.00 | 0.00 | 80 | 1013.5 |